Flag for Canada Weather past 2 weeks in Churchill, Manitoba, Canada

Now
48 °F

Mostly cloudy.


Feels Like: 41 °F
Forecast: 47 / 52 °F
Wind: 20 mph from Northeast

Location: Churchill

Current Time: Aug 29, 2015 at 10:49:06 PM

Latest Report: Aug 29, 2015 at 10:00 PM


Visibility: 10 mi

Pressure: 29.78 "Hg

Humidity: 94%

Dew point: 46 °F

Location of ChurchillLocation

Historic Weather in Churchill — Graph

°F

Churchill temperature yesterday

Maximum temperature yesterday: 68 °F (at 2:00 PM)
Minimum temperature yesterday: 45 °F (at 6:00 AM)
Average temperature yesterday: 56 °F

Past Weeks' High & Low Weather Summary

 TemperatureHumidityPressure
High68 °F (Aug 17, 1:00 PM)100% (Aug 14, 11:00 PM)30.16 "Hg (Aug 14, 11:00 PM)
Low41 °F (Aug 21, 4:00 AM)43% (Aug 17, 1:00 PM)29.58 "Hg (Aug 29, 4:00 AM)
Average52 °F82%29.89 "Hg
* Reported Aug 14 9:00 PM — Aug 29 9:00 PM, Churchill, Weather by CustomWeather, © 2015

Note: Actual official high and low records may vary slightly from our data, if they occured in-between our weather recording intervals... More about our weather records

Advertising

Churchill weather history for previous 24 hours

 ConditionsComfort  
Time TempWeatherWind HumidityBarometerVisibility
9:00 PM
Sat, Aug 29
48 °FFog.17 mph94%29.78 "Hg3 mi
8:00 PM48 °FFog.15 mph100%29.78 "Hg3 mi
7:00 PM48 °FFog.15 mph100%29.77 "Hg2 mi
6:00 PM50 °FFog.16 mph94%29.76 "Hg4 mi
5:00 PM50 °FFog.18 mph88%29.74 "Hg5 mi
4:00 PM50 °FFog.17 mph94%29.73 "Hg5 mi
3:00 PM50 °FFog.17 mph94%29.74 "Hg5 mi
2:00 PM50 °FFog.14 mph94%29.73 "Hg4 mi
1:00 PM52 °FFog.14 mph94%29.72 "Hg3 mi
12:00 PM52 °FFog.12 mph94%29.69 "Hg4 mi
11:55 AM52 °FFog.13 mph94%29.69 "Hg4 mi
11:00 AM52 °FFog.13 mph100%29.67 "Hg3 mi
10:00 AM52 °FFog.12 mph100%29.65 "Hg2 mi
9:00 AM55 °FFog.8 mph94%29.63 "Hg0 mi
8:00 AM54 °FFog.8 mph100%29.63 "Hg0 mi
7:00 AM54 °FFog.9 mph94%29.60 "Hg0 mi
6:00 AM54 °FPassing clouds.6 mph94%29.59 "Hg15 mi
5:00 AM54 °FPassing clouds.7 mph94%29.58 "Hg15 mi
4:00 AM54 °FPassing clouds.7 mph100%29.58 "Hg15 mi
3:00 AM55 °FPassing clouds.8 mph94%29.59 "Hg15 mi
2:00 AM55 °FPassing clouds.7 mph100%29.59 "Hg15 mi
1:00 AM57 °FSprinkles. Overcast.10 mph94%29.58 "Hg15 mi
12:00 AM57 °FSprinkles. Mostly cloudy.8 mph88%29.60 "Hg10 mi
11:00 PM
Fri, Aug 28
57 °FThunderstorms. Mostly cloudy.10 mph82%29.62 "Hg10 mi
10:49 PM59 °FThunderstorms. Partly cloudy.14 mph72%29.60 "Hg15 mi
10:00 PM57 °FPassing clouds.14 mph82%29.60 "Hg15 mi
Weather by CustomWeather, © 2015

See weather overviewHow to use our weather pages